Hundvaag 1 weather for Sep 1987
Month no. 3
Obs.
Da.
Temp. Dew Point Precip. Wind
Speed
Wind gusts Cloud cover Press. Humidity Wind dir. Sunny OPT
01.09.1987     0,0                
02.09.1987     0,0             1  
03.09.1987     0,0             1  
04.09.1987     1,1             1  
05.09.1987     4,4             1  
06.09.1987     2,7             1  
07.09.1987     14,7             1  
08.09.1987     19,7                
09.09.1987     8,6             1  
10.09.1987     24,0             1  
11.09.1987     19,1                
12.09.1987     2,6             1  
13.09.1987     15,2             1  
14.09.1987     4,0             1  
15.09.1987     15,0             1  
16.09.1987     1,5             1  
17.09.1987     0,0             1  
18.09.1987     3,5             1  
19.09.1987     6,2             1  
20.09.1987     1,6             1  
21.09.1987     0,0                
22.09.1987     3,3             1  
23.09.1987     4,0             1  
24.09.1987     3,4             1  
25.09.1987     18,3             1  
26.09.1987     12,1             1  
27.09.1987     4,1             1  
28.09.1987     1,4             1  
29.09.1987     0,0             1  
30.09.1987     0,0             1  
                       
Avrg/Sum     190,5             26